GRARBER Weather Reports


time (UTC)temp
C
wind
direction
speed
KPH
gust
KPH
rain 1hr
cm
rain 24hr
cm
rain mn
cm
humidity
%
barometer
mb
20260906021654 7 310 24.1 35.4 0.00 0.00 0.00 87
20260906011953 7 310 25.7 37.0 0.00 0.00 0.00 87
20260906001654 7 310 24.1 35.4 0.00 0.00 0.00 75
20260905231655 7 310 25.7 0.0 0.00 0.00 0.00 75
20260905222056 7 300 24.1 37.0 0.00 0.00 0.00 81
20260905211653 8 300 24.1 0.0 0.00 0.00 0.00 76
20260905201654 10 300 24.1 40.2 0.00 0.00 0.00 76
20260905191955 11 280 33.8 48.3 0.00 0.00 0.00 71
20260905181653 11 270 38.6 57.9 0.00 0.00 0.00 71
20260905171654 12 260 38.6 53.1 0.00 0.00 0.00 66
20260905162057 12 260 40.2 57.9 0.00 0.00 0.00 71
20260905152121 12 250 40.2 62.8 0.00 0.00 0.00 87
20260905142227 10 240 37.0 57.9 0.00 0.00 0.00 99
20260905131854 10 250 35.4 53.1 0.00 0.00 0.00 99
20260905121623 10 240 37.0 56.3 0.00 0.00 0.00 99
20260905111656 8 240 32.2 45.1 0.00 0.00 0.00 99
20260905102114 8 250 27.4 38.6 0.00 0.00 0.00 99
20260905091623 7 240 27.4 0.0 0.00 0.00 0.00 99
20260905081656 7 260 29.0 0.0 0.00 0.00 0.00 99
20260905071957 7 280 29.0 45.1 0.00 0.00 0.00 93
20260905061656 7 300 29.0 41.8 0.00 0.00 0.00 93
20260905051656 7 300 29.0 41.8 0.00 0.00 0.00 99
20260905042058 6 330 38.6 0.0 0.00 0.00 0.00 99
20260905031656 8 330 38.6 57.9 0.00 0.00 0.00 93